This is the latest recevied weather packets stored in our database for station/object DB0OHL. If no packets are shown the sender has not sent any weather packets the latest 10 day(s).
| Time | Temp. | Humidity | Pressure | Rain* | Wind** | Luminosity | Snow |
|---|---|---|---|---|---|---|---|
| 1777722951 | 23.33° C | 58% | 1017.1 hPa | 0 mm | - | - | - |
| 1777722348 | 23.89° C | 57% | 1017 hPa | 0 mm | - | - | - |
| 1777721746 | 23.89° C | 57% | 1017.3 hPa | 0 mm | - | - | - |
| 1777721143 | 23.33° C | 58% | 1017.3 hPa | 0 mm | - | - | - |
| 1777720541 | 22.78° C | 58% | 1017.5 hPa | 0 mm | - | - | - |
| 1777719938 | 22.78° C | 58% | 1017.5 hPa | 0 mm | - | - | - |
| 1777719336 | 22.78° C | 59% | 1017.6 hPa | 0 mm | - | - | - |
| 1777718733 | 22.78° C | 58% | 1017.7 hPa | 0 mm | - | - | - |
| 1777718131 | 22.78° C | 57% | 1017.7 hPa | 0 mm | - | - | - |
| 1777717528 | 22.22° C | 57% | 1017.9 hPa | 0 mm | - | - | - |
| 1777716926 | 22.22° C | 56% | 1018.1 hPa | 0 mm | - | - | - |
| 1777716323 | 21.67° C | 57% | 1018.2 hPa | 0 mm | - | - | - |
| 1777715721 | 22.22° C | 56% | 1018.2 hPa | 0 mm | - | - | - |
| 1777715118 | 21.11° C | 55% | 1018.3 hPa | 0 mm | - | - | - |
| 1777714516 | 21.11° C | 56% | 1018.4 hPa | 0 mm | - | - | - |
| 1777713973 | 21.11° C | 55% | 1018.4 hPa | 0 mm | - | - | - |
| 1777713371 | 21.11° C | 56% | 1018.4 hPa | 0 mm | - | - | - |
| 1777712768 | 21.11° C | 55% | 1018.4 hPa | 0 mm | - | - | - |
| 1777712166 | 20.56° C | 56% | 1018.4 hPa | 0 mm | - | - | - |
| 1777711563 | 20° C | 55% | 1018.4 hPa | 0 mm | - | - | - |
| 1777710961 | 18.89° C | 57% | 1018.5 hPa | 0 mm | - | - | - |
| 1777710358 | 20° C | 56% | 1018.5 hPa | 0 mm | - | - | - |
| 1777709756 | 20° C | 53% | 1018.4 hPa | 0 mm | - | - | - |
| 1777709153 | 20° C | 51% | 1018.5 hPa | 0 mm | - | - | - |
| 1777708550 | 20° C | 51% | 1018.4 hPa | 0 mm | - | - | - |
* Rain latest hour (hover to see other rain measurements)
** Current wind speed in m/s (hover to see current wind gust speed)